Location: L�gaud
(45.7115°N, 1.7775°E)
Time: 14:43:28
(UTC+00:00)

SME Rocket - Pass Details

Date: 03 March 2021
Orbit: 550 x 2652 km, 99.9° (Epoch: 16 April)

Event Time Altitude Azimuth Distance (km) Brightness Sun altitude
Rises 19:07:34 0° 17° (NNE) 4,939 7.6 -15.6°
Reaches altitude 10° 19:11:13 10° 22° (NNE) 3,615 6.8 -16.2°
Maximum altitude 19:18:55 49° 95° (E) 1,335 4.3 -17.6°
Drops below altitude 10° 19:24:00 10° 171° (S) 2,395 5.9 -18.4°
Sets 19:26:00 0° 177° (S) 3,154 6.6 -18.8°
